Lebanon, NH

1:31 AM EDT on October 21, 2019 (GMT -0400)
Lebanon Municipal

Weather History for KLEB - August, 2019

Change the Weather History Date:

Wednesday, August 21, 2019

  Actual Average Record
Temperature  
Mean Temperature 64 °F -  
Max Temperature 72 °F 78 °F 93 °F (1937)
Min Temperature 57 °F 52 °F 40 °F (1926)
Degree Days  
Heating Degree Days 1    
Growing Degree Days 14 (Base 50)    
Moisture  
Dew Point 62 °F    
Average Humidity 87    
Maximum Humidity 90    
Minimum Humidity 83    
Precipitation  
Precipitation 0.84 in - - ()
Sea Level Pressure  
Sea Level Pressure 29.92 in    
Wind  
Wind Speed 2 mph (North)    
Max Wind Speed 8 mph    
Max Gust Speed -    
Visibility 6 miles    
Events Rain , Thunderstorm    
Averages and records for this station are not official NWS values.
T = Trace of Precipitation, MM = Missing Value Source: NWS Daily Summary

Daily Weather History Graph

Daily Weather History Graph

Search for Another Location

Airport or City:

Astronomy

Aug. 21, 2019 Rise Set
Actual Time 6:00 AM EDT 7:43 PM EDT
Civil Twilight 5:29 AM EDT 8:14 PM EDT
Nautical Twilight 4:52 AM EDT 8:50 PM EDT
Astronomical Twilight 4:12 AM EDT 9:30 PM EDT
Moon 10:48 PM EDT 11:43 AM EDT
Length of Visible Light 14h 44m
Length of Day
13h 43m
Waning Gibbous, 69% of the Moon is Illuminated
Aug 21
Waning Gibbous
Aug 23
Last Quarter
Aug 30
New
Sep 5
First Quarter
Sep 14
Full

Hourly Weather History & Observations

Time (EDT) Temp. Dew Point Humidity Pressure Visibility Wind Dir Wind Speed Gust Speed Precip Events Conditions
12:53 AM 57.9 °F 54.0 °F 87% 30.02 in 10.0 mi Calm Calm - N/A   Clear
1:53 AM 57.9 °F 53.1 °F 84% 30.00 in 10.0 mi Calm Calm - N/A   Clear
2:53 AM 57.0 °F 53.1 °F 87% 30.00 in 10.0 mi Calm Calm - N/A   Clear
3:53 AM 57.0 °F 52.0 °F 83% 29.99 in 10.0 mi Calm Calm - N/A   Clear
4:53 AM 57.0 °F 52.0 °F 83% 29.98 in 10.0 mi Calm Calm - N/A   Clear
5:53 AM 57.0 °F 53.1 °F 87% 29.97 in 10.0 mi Calm Calm - N/A   Clear
6:53 AM 57.9 °F 54.0 °F 87% 29.97 in 10.0 mi Calm Calm - N/A   Clear
7:00 AM 57.9 °F 54.0 °F 87% 29.99 in 10.0 mi Calm Calm - N/A   Partly Cloudy
7:53 AM 60.1 °F 55.0 °F 83% 29.99 in 10.0 mi South 4.6 mph - N/A   Scattered Clouds
8:00 AM 60.1 °F 55.0 °F 83% 30.01 in 8.0 mi South 5.8 mph - 0.00 in Rain , Thunderstorm Light Rain
8:14 AM 60.1 °F 55.9 °F 86% 29.98 in 7.0 mi Calm Calm - 0.03 in Rain Light Rain
8:53 AM 62.1 °F 57.0 °F 84% 29.97 in 7.0 mi SW 8.1 mph - 0.06 in Rain Light Rain
9:01 AM 62.1 °F 57.9 °F 86% 29.98 in 5.0 mi SSE 3.5 mph - 0.01 in Rain Light Rain
9:26 AM 63.0 °F 59.0 °F 87% 29.98 in 2.0 mi NW 6.9 mph - 0.08 in Rain Rain
9:36 AM 63.0 °F 60.1 °F 90% 29.98 in 3.0 mi West 4.6 mph - 0.09 in Rain Light Rain
9:49 AM 64.4 °F 60.8 °F 88% 29.98 in 2.5 mi Calm Calm - 0.12 in Rain Light Rain
9:53 AM 63.0 °F 60.1 °F 90% 29.96 in 4.0 mi Calm Calm - 0.13 in Rain Light Rain
10:04 AM 64.0 °F 60.1 °F 87% 29.97 in 2.0 mi North 3.5 mph - 0.03 in Rain Rain
10:16 AM 64.0 °F 60.1 °F 87% 29.96 in 5.0 mi Calm Calm - 0.04 in Rain Light Rain
10:35 AM 64.9 °F 61.0 °F 87% 29.96 in 7.0 mi NE 5.8 mph - 0.05 in Rain Light Rain
10:50 AM 66.2 °F 62.6 °F 88% 29.96 in 10.0 mi NNE 3.5 mph - 0.05 in   Mostly Cloudy
10:53 AM 66.9 °F 63.0 °F 87% 29.95 in 10.0 mi Calm Calm - 0.05 in   Mostly Cloudy
11:15 AM 68.0 °F 63.0 °F 84% 29.96 in 10.0 mi Calm Calm - N/A   Mostly Cloudy
11:26 AM 69.1 °F 64.0 °F 84% 29.95 in 10.0 mi NE 3.5 mph - N/A   Mostly Cloudy
11:53 AM 69.1 °F 64.0 °F 84% 29.92 in 5.0 mi NNE 5.8 mph - 0.07 in Rain Light Rain
12:21 PM 68.0 °F 64.0 °F 87% 29.96 in 2.0 mi WNW 4.6 mph - 0.02 in Rain Rain
12:26 PM 68.0 °F 64.0 °F 87% 29.96 in 1.0 mi NNW 4.6 mph - 0.09 in Rain Rain
12:34 PM 66.9 °F 63.0 °F 87% 29.96 in 0.8 mi North 5.8 mph - 0.18 in Rain Heavy Rain
12:41 PM 66.9 °F 63.0 °F 87% 29.95 in 1.8 mi ENE 5.8 mph - 0.22 in Rain Rain
12:47 PM 66.2 °F 62.6 °F 88% 29.95 in 1.2 mi Calm Calm - 0.29 in Rain Heavy Rain
12:48 PM 66.9 °F 63.0 °F 87% 29.94 in 1.2 mi Calm Calm - 0.30 in Rain Heavy Rain
1:03 PM 66.9 °F 64.0 °F 90% 29.94 in 3.0 mi ESE 3.5 mph - 0.05 in Rain Rain
1:20 PM 68.0 °F 64.0 °F 87% 29.94 in 1.8 mi Calm Calm - 0.10 in Rain Rain
1:31 PM 68.0 °F 64.0 °F 87% 29.93 in 3.0 mi Calm Calm - 0.13 in Rain Rain
1:41 PM 69.1 °F 64.9 °F 87% 29.92 in 7.0 mi NNE 4.6 mph - 0.13 in Rain Light Rain
1:49 PM 69.8 °F 64.4 °F 83% 29.91 in 10.0 mi NE 4.6 mph - 0.13 in Rain Light Rain
1:53 PM 69.1 °F 64.9 °F 87% 29.89 in 10.0 mi NE 4.6 mph - 0.14 in Rain Light Rain
2:15 PM 70.0 °F 64.9 °F 84% 29.90 in 8.0 mi NNE 3.5 mph - 0.00 in Rain Light Rain
2:53 PM 71.1 °F 66.0 °F 84% 29.87 in 10.0 mi North 3.5 mph - 0.00 in   Overcast
3:16 PM 70.0 °F 64.9 °F 84% 29.88 in 10.0 mi Calm Calm - N/A   Overcast
3:19 PM 70.0 °F 64.9 °F 84% 29.88 in 10.0 mi WSW 3.5 mph - N/A   Overcast
3:30 PM 70.0 °F 66.0 °F 87% 29.87 in 10.0 mi West 3.5 mph - N/A   Overcast
3:53 PM 70.0 °F 64.9 °F 84% 29.86 in 10.0 mi Calm Calm - N/A   Overcast
4:53 PM 70.0 °F 66.0 °F 87% 29.84 in 3.0 mi Calm Calm - 0.05 in Rain Light Rain
5:32 PM 70.0 °F 66.0 °F 87% 29.83 in 2.5 mi Calm Calm - 0.03 in Rain Light Rain
5:53 PM 70.0 °F 66.9 °F 90% 29.82 in 2.5 mi Calm Calm - 0.03 in Rain Light Rain
5:55 PM 70.0 °F 66.9 °F 90% 29.83 in 2.0 mi Calm Calm - 0.01 in Rain Light Rain
6:17 PM 71.1 °F 66.9 °F 87% 29.81 in 2.5 mi North 3.5 mph - 0.01 in   Overcast
6:53 PM 71.1 °F 66.9 °F 87% 29.80 in 2.0 mi North 4.6 mph - 0.01 in   Overcast
7:05 PM 71.1 °F 66.9 °F 87% 29.83 in 2.0 mi NNW 4.6 mph - N/A   Overcast
7:53 PM 71.1 °F 66.9 °F 87% 29.81 in 3.0 mi Calm Calm - N/A   Overcast
8:53 PM 69.1 °F 66.0 °F 90% 29.82 in 3.0 mi Calm Calm - N/A   Overcast
9:00 PM 69.1 °F 66.0 °F 90% 29.83 in 2.0 mi Calm Calm - N/A   Overcast
9:53 PM 69.1 °F 66.0 °F 90% 29.81 in 2.0 mi Calm Calm - N/A   Overcast
10:00 PM 69.1 °F 66.0 °F 90% 29.83 in 7.0 mi Calm Calm - N/A   Overcast
10:53 PM 69.1 °F 66.0 °F 90% 29.81 in 8.0 mi Calm Calm - N/A   Overcast
11:05 PM 70.0 °F 66.0 °F 87% 29.83 in 8.0 mi Calm Calm - N/A   Overcast
11:51 PM 69.8 °F 66.2 °F 88% 29.83 in 7.0 mi SW 4.6 mph - N/A   Overcast
11:53 PM 70.0 °F 66.0 °F 87% 29.81 in 7.0 mi SSW 3.5 mph - N/A   Overcast